New Roads False River Regiona, LA

9:09 AM CST on November 17, 2019 (GMT -0600)
False River

Weather History for KHZR - September, 2019

Change the Weather History Date:

Thursday, September 19, 2019

  Actual Average (WUND) Record (WUND)
Temperature  
Mean Temperature 78 °F -  
Max Temperature 86 °F - - (-1)
Min Temperature 71 °F - - (-1)
Cooling Degree Days 14    
Growing Degree Days 28 (Base 50)    
Moisture  
Dew Point 74 °F    
Average Humidity 88    
Maximum Humidity 100    
Minimum Humidity 66    
Precipitation  
Precipitation 1.16 in - - ()
Sea Level Pressure  
Sea Level Pressure 29.98 in    
Wind  
Wind Speed 2 mph ()    
Max Wind Speed 12 mph    
Max Gust Speed -    
Visibility 9.5 miles    
Events Rain , Thunderstorm    
Averages and records for this station are not official NWS values.
T = Trace of Precipitation, MM = Missing Value Source: Averaged Metar Reports

Daily Weather History Graph

Daily Weather History Graph

Search for Another Location

Airport or City:

Astronomy

Sep. 19, 2019 Rise Set
Actual Time 6:52 AM CDT 7:06 PM CDT
Civil Twilight 6:28 AM CDT 7:30 PM CDT
Nautical Twilight 6:00 AM CDT 7:58 PM CDT
Astronomical Twilight 5:31 AM CDT 8:27 PM CDT
Moon 10:36 PM CDT (9/19) 11:36 AM CDT (9/19)
Length of Visible Light 13h 02m
Length of Day
12h 14m
Waning Gibbous, 74% of the Moon is Illuminated
Sep 19
Waning Gibbous
Sep 21
Last Quarter
Sep 28
New
Oct 5
First Quarter
Oct 13
Full

Hourly Weather History & Observations

Time (CDT) Temp. Heat Index Dew Point Humidity Pressure Visibility Wind Dir Wind Speed Gust Speed Precip Events Conditions
12:17 AM 73.4 °F - 73.4 °F 100% 29.96 in 10.0 mi Calm Calm - N/A   Clear
12:39 AM 73.4 °F - 73.4 °F 100% 29.95 in 10.0 mi Calm Calm - N/A   Clear
12:59 AM 73.4 °F - 73.4 °F 100% 29.94 in 10.0 mi Calm Calm - N/A   Clear
1:19 AM 73.4 °F - 73.4 °F 100% 29.94 in 10.0 mi Calm Calm - N/A   Clear
1:58 AM 73.4 °F - 71.6 °F 94% 29.95 in 10.0 mi Calm Calm - N/A   Clear
2:17 AM 73.4 °F - 73.4 °F 100% 29.96 in 10.0 mi Calm Calm - N/A   Clear
2:36 AM 71.6 °F - 71.6 °F 100% 29.95 in 10.0 mi Calm Calm - N/A   Clear
2:58 AM 71.6 °F - 71.6 °F 100% 29.94 in 10.0 mi Calm Calm - N/A   Clear
3:38 AM 71.6 °F - 71.6 °F 100% 29.95 in 10.0 mi Calm Calm - N/A   Clear
3:57 AM 71.6 °F - 71.6 °F 100% 29.94 in 10.0 mi Calm Calm - N/A   Clear
4:56 AM 71.6 °F - 71.6 °F 100% 29.95 in 10.0 mi Calm Calm - N/A   Clear
5:17 AM 71.6 °F - 71.6 °F 100% 29.96 in 10.0 mi Calm Calm - N/A   Scattered Clouds
5:37 AM 71.6 °F - 71.6 °F 100% 29.96 in 10.0 mi ENE 3.5 mph - N/A   Scattered Clouds
6:17 AM 73.4 °F - 71.6 °F 94% 29.95 in 10.0 mi East 3.5 mph - N/A   Clear
6:58 AM 73.4 °F - 71.6 °F 94% 29.96 in 10.0 mi East 4.6 mph - N/A   Clear
7:39 AM 73.4 °F - 73.4 °F 100% 29.98 in 10.0 mi Calm Calm - N/A   Clear
7:58 AM 73.4 °F - 73.4 °F 100% 29.99 in 10.0 mi Calm Calm - N/A   Clear
8:19 AM 75.2 °F - 73.4 °F 94% 30.00 in 10.0 mi Calm Calm - N/A   Clear
10:17 AM 80.6 °F 86.2 °F 75.2 °F 84% 30.00 in 10.0 mi East 4.6 mph - N/A   Clear
10:37 AM 80.6 °F 87.1 °F 77.0 °F 89% 30.01 in 10.0 mi ESE 3.5 mph - N/A   Clear
10:59 AM 80.6 °F 87.1 °F 77.0 °F 89% 30.00 in 10.0 mi SE 5.8 mph - N/A   Clear
11:17 AM 82.4 °F 92.4 °F 78.8 °F 89% 30.01 in 10.0 mi SE 5.8 mph - N/A   Scattered Clouds
11:39 AM 82.4 °F 90.9 °F 77.0 °F 84% 30.01 in 10.0 mi SE 5.8 mph - N/A   Clear
12:17 PM 84.2 °F 92.3 °F 75.2 °F 74% 30.02 in 10.0 mi South 4.6 mph - N/A   Scattered Clouds
12:37 PM 84.2 °F 92.3 °F 75.2 °F 74% 30.01 in 10.0 mi SSW 6.9 mph - N/A   Scattered Clouds
12:58 PM 84.2 °F 92.3 °F 75.2 °F 74% 30.01 in 10.0 mi SSE 4.6 mph - N/A   Scattered Clouds
1:18 PM 84.2 °F 92.3 °F 75.2 °F 74% 30.00 in 10.0 mi SSE 5.8 mph - N/A   Scattered Clouds
1:37 PM 84.2 °F 92.3 °F 75.2 °F 74% 29.99 in 10.0 mi South 3.5 mph - N/A   Scattered Clouds
1:57 PM 84.2 °F 92.3 °F 75.2 °F 74% 29.98 in 10.0 mi SSW 5.8 mph - N/A   Mostly Cloudy
2:17 PM 86.0 °F 95.1 °F 75.2 °F 70% 29.98 in 10.0 mi South 4.6 mph - N/A   Scattered Clouds
2:37 PM 86.0 °F 95.1 °F 75.2 °F 70% 29.97 in 10.0 mi SSE 5.8 mph - N/A   Mostly Cloudy
2:57 PM 86.0 °F 95.1 °F 75.2 °F 70% 29.96 in 10.0 mi Calm Calm - N/A   Mostly Cloudy
3:17 PM 86.0 °F 95.1 °F 75.2 °F 70% 29.96 in 10.0 mi Calm Calm - N/A   Mostly Cloudy
3:37 PM 86.0 °F 93.4 °F 73.4 °F 66% 29.96 in 10.0 mi SSE 3.5 mph - N/A   Mostly Cloudy
3:58 PM 86.0 °F 95.1 °F 75.2 °F 70% 29.97 in 10.0 mi Calm Calm - N/A   Mostly Cloudy
4:17 PM 86.0 °F 95.1 °F 75.2 °F 70% 29.97 in 10.0 mi Calm Calm - N/A   Mostly Cloudy
4:37 PM 86.0 °F 95.1 °F 75.2 °F 70% 29.97 in 10.0 mi Calm Calm - N/A   Scattered Clouds
4:59 PM 86.0 °F 95.1 °F 75.2 °F 70% 29.97 in 10.0 mi Calm Calm - N/A   Scattered Clouds
5:18 PM 86.0 °F 95.1 °F 75.2 °F 70% 29.96 in 10.0 mi Calm Calm - N/A   Clear
5:37 PM 84.2 °F 92.3 °F 75.2 °F 74% 29.96 in 10.0 mi Calm Calm - N/A   Clear
5:57 PM 84.2 °F 92.3 °F 75.2 °F 74% 29.96 in 10.0 mi North 4.6 mph - N/A   Scattered Clouds
6:37 PM 78.8 °F - 75.2 °F 89% 29.97 in 2.5 mi SSE 9.2 mph - 0.10 in Rain , Thunderstorm Heavy Thunderstorms and Rain
6:57 PM 75.2 °F - 71.6 °F 89% 29.99 in 5.0 mi SSW 5.8 mph - 0.25 in Rain , Thunderstorm Heavy Thunderstorms and Rain
7:17 PM 73.4 °F - 71.6 °F 94% 29.99 in 10.0 mi West 11.5 mph - 0.01 in Rain , Thunderstorm Light Thunderstorms and Rain
7:57 PM 71.6 °F - 71.6 °F 100% 30.05 in 2.0 mi Calm Calm - 0.75 in Rain , Thunderstorm Heavy Thunderstorms and Rain
8:17 PM 71.6 °F - 71.6 °F 100% 30.04 in 7.0 mi NE 9.2 mph - 0.08 in Rain , Thunderstorm Thunderstorms and Rain
8:57 PM 71.6 °F - 71.6 °F 100% 30.04 in 7.0 mi North 5.8 mph - 0.12 in Rain Rain
9:17 PM 71.6 °F - 71.6 °F 100% 30.02 in 10.0 mi Calm Calm - 0.03 in Rain Rain
9:37 PM 71.6 °F - 71.6 °F 100% 30.02 in 10.0 mi NE 5.8 mph - 0.04 in Rain Light Rain
10:18 PM 73.4 °F - 71.6 °F 94% 30.02 in 10.0 mi East 4.6 mph - N/A   Clear
10:57 PM 71.6 °F - 71.6 °F 100% 30.02 in 10.0 mi Calm Calm - N/A   Clear
11:37 PM 71.6 °F - 71.6 °F 100% 30.02 in 10.0 mi East 3.5 mph - N/A   Clear
11:57 PM 71.6 °F - 71.6 °F 100% 30.02 in 10.0 mi ESE 4.6 mph - N/A   Clear